Scottsdale, AZ

4:47 PM MST on January 17, 2017 (GMT -0700)
Scottsdale

Weather History for KSDL - February, 2013

Change the Weather History Date:

Friday, February 1, 2013

  Actual Average Record
Temperature  
Mean Temperature 56 °F -  
Max Temperature 70 °F 64 °F 79 °F (2003)
Min Temperature 43 °F 44 °F 32 °F (2002)
Degree Days  
Heating Degree Days 8    
Growing Degree Days 6 (Base 50)    
Moisture  
Dew Point 36 °F    
Average Humidity 53    
Maximum Humidity 82    
Minimum Humidity 23    
Precipitation  
Precipitation 0.00 in - - ()
Sea Level Pressure  
Sea Level Pressure 30.14 in    
Wind  
Wind Speed 0 mph (WSW)    
Max Wind Speed 7 mph    
Max Gust Speed -    
Visibility 10 miles    
Events      
Averages and records for this station are not official NWS values.
T = Trace of Precipitation, MM = Missing Value Source: NWS Daily Summary

Daily Weather History Graph

Daily Weather History Graph

Search for Another Location

Airport or City:

Trip Planner

Search our weather history database for the weather conditions in past years. The results will help you decide how hot, cold, wet, or windy it might be!

Date:

Astronomy

Feb. 01, 2013 Rise Set
Actual Time 7:23 AM MST 5:59 PM MST
Civil Twilight 6:57 AM MST 6:25 PM MST
Nautical Twilight 6:27 AM MST 6:55 PM MST
Astronomical Twilight 5:58 AM MST 7:24 PM MST
Moon 11:49 PM MST (2/1) 10:18 AM MST (2/1)
Length of Visible Light 11h 27m
Length of Day
10h 35m
Waning Gibbous, 69% of the Moon is Illuminated
Feb 1
Waning Gibbous
Feb 3
Last Quarter
Feb 10
New
Feb 17
First Quarter
Feb 25
Full

Hourly Weather History & Observations

Time (MST) Temp. Dew Point Humidity Pressure Visibility Wind Dir Wind Speed Gust Speed Precip Events Conditions
12:53 AM 48.9 °F 39.0 °F 69% 30.13 in 10.0 mi Calm Calm - N/A   Clear
1:53 AM 46.9 °F 39.0 °F 74% 30.12 in 10.0 mi Calm Calm - N/A   Clear
2:53 AM 46.0 °F 37.9 °F 73% 30.12 in 10.0 mi Calm Calm - N/A   Clear
3:53 AM 46.0 °F 37.9 °F 73% 30.10 in 10.0 mi Calm Calm - N/A   Clear
4:53 AM 43.0 °F 37.9 °F 82% 30.12 in 10.0 mi Calm Calm - N/A   Clear
5:53 AM 44.1 °F 37.0 °F 76% 30.12 in 10.0 mi Calm Calm - N/A   Clear
6:53 AM 43.0 °F 37.0 °F 80% 30.15 in 10.0 mi Calm Calm - N/A   Clear
7:53 AM 44.1 °F 37.0 °F 76% 30.16 in 10.0 mi Calm Calm - N/A   Clear
8:53 AM 48.9 °F 37.9 °F 66% 30.17 in 10.0 mi Calm Calm - N/A   Clear
9:53 AM 54.0 °F 37.0 °F 53% 30.18 in 10.0 mi Calm Calm - N/A   Clear
10:53 AM 59.0 °F 36.0 °F 42% 30.19 in 10.0 mi Calm Calm - N/A   Clear
11:53 AM 63.0 °F 35.1 °F 35% 30.17 in 10.0 mi Calm Calm - N/A   Clear
12:53 PM 66.0 °F 33.1 °F 29% 30.14 in 10.0 mi Calm Calm - N/A   Clear
2:53 PM 70.0 °F 30.9 °F 24% 30.11 in 10.0 mi Calm Calm - N/A   Clear
3:53 PM 70.0 °F 30.9 °F 24% 30.10 in 10.0 mi Calm Calm - N/A   Clear
4:53 PM 70.0 °F 30.0 °F 23% 30.10 in 10.0 mi WSW 6.9 mph - N/A   Clear
5:53 PM 68.0 °F 32.0 °F 26% 30.12 in 10.0 mi Calm Calm - N/A   Clear
6:53 PM 64.9 °F 34.0 °F 32% 30.13 in 10.0 mi Calm Calm - N/A   Clear
7:53 PM 61.0 °F 36.0 °F 39% 30.15 in 10.0 mi Calm Calm - N/A   Clear
8:53 PM 59.0 °F 37.0 °F 44% 30.16 in 10.0 mi Calm Calm - N/A   Clear
9:53 PM 55.9 °F 37.9 °F 51% 30.17 in 10.0 mi Calm Calm - N/A   Clear
10:53 PM 52.0 °F 39.0 °F 61% 30.18 in 10.0 mi Calm Calm - N/A   Clear
11:53 PM 52.0 °F 39.0 °F 61% 30.17 in 10.0 mi Calm Calm - N/A   Clear